MAROC TUBSAT

Satellite information

Favourite Embed

Satellite Type and Status

PAYLOADIN ORBIT

Key statistics

Satellite MAROC TUBSAT at a glance.

Uptime

8718

Days in orbit

Revolutions

≈ 13.7

Per day

Orbit

SSO

Sun Synchronous Orbit

Inclination

99.8

Latest

Satellite identification and parameters

Extended collection of information and parameters for MAROC TUBSAT.

Object identification

Identified? True

Debris? False

Object name: MAROC TUBSAT

International designator: 2001-056D

Object number (NORAD): 27004

Object ID (CCSDS): 27004

Country: GERMANY (GER)

Current information (Y/N): Y

RCS size: MEDIUM

Orbital parameters

Period: 105.09 minutes

Inclination: 99.791 deg

SMA: 7376.813 km

Apoapsis: 1013.612 km

Periapsis: 983.743 km

RAAN: 103.4933 deg

Eccentricy: 0.00202453

Argument of periapsis: 32.5549 deg

Mean anomaly: 121.6244 deg

Mean motion: 13.70249459 rev/day

Mean motion (dot): -0.0000003 rev/day2

B* drag term: 0.000018774315 1/REarth

Two-line elements (TLE)

Creation date: Oct. 23, 2025, 2:46 a.m.

Reference frame: TEME

Reference center: EARTH

Epoch: Oct. 22, 2025, 10:26 p.m. UTC

TLE line 0: 0 MAROC TUBSAT

TLE line 1: 1 27004U 01056D 25295.93492021 -.00000030 00000-0 18774-4 0 9993

TLE line 2: 2 27004 99.7910 103.4933 0020245 32.5549 121.6244 13.70249459193696

Live tracking on map

Real-time ground track for satellite MAROC TUBSAT.

In-orbit conjunctions

There are no conjunctions computed for MAROC TUBSAT, at the moment. Check back to stay up to date, as we update our databases every day.

Go to all conjunctions

Associated space launch

Meteor-3M No.1 is the first and so far only of the Meteor-3M series polar-orbit weather satellites.

MAROC TUBSAT was lifted into orbit during the mission ‘Zenit-2 | Meteor-3M No. 1’, on board a Zenit-2 space rocket.

The launch took place on Dec. 10, 2001, 5:18 p.m. from 45/1.

For more information about the launch, click the button.

Launch to space Zenit-2 | Meteor-3M No. 1
Zenit-2 | Meteor-3M No. 1

Agency: N/A

Status: Launch Successful

Launch date: Dec. 10, 2001, 5:18 p.m. UTC

Rocket: Zenit-2

Launch pad: 45/1

Location: Baikonur Cosmodrome, Republic of Kazakhstan

...

Latest news about this satellite

There are no fresh news available about this satellite. Check back as we update our databases every day.


Newsletter sign-up

Weekly statistics, charts and insights to help you stay on top of the space industry.